Timestamp,Temp,Chill,HIndex,Humid,Dewpt,Wind,HiWind,WindDir,Rain,RainRate,Barom,Solar,ET,UV,InsideTemp,InsideHumid
2015-08-15 00:00:00,56.9,56.9,56.9,91,54.2986398051876,3,7,247.5,0,0,29.482,0,0,0,78.4,49
2015-08-15 00:05:00,56.8,56.8,56.8,91,54.199785490792,2,8,292.5,0,0,29.481,0,0,0,78.4,49
2015-08-15 00:10:00,56.8,56.8,56.8,91,54.199785490792,1,6,270,0,0,29.481,0,0,0,78.4,49
2015-08-15 00:15:00,56.7,56.7,56.7,91,54.1009309255019,2,7,292.5,0,0,29.479,0,0,0,78.4,49
2015-08-15 00:20:00,56.6,56.6,56.6,91,54.0020761093164,2,8,225,0,0,29.478,0,0,0,78.4,49
2015-08-15 00:25:00,56.5,56.5,56.5,91,53.9032210422344,1,7,247.5,0,0,29.478,0,0,0,78.4,49
2015-08-15 00:30:00,56.4,56.4,56.4,90,53.5021988695694,2,6,247.5,0,0,29.479,0,0,0,78.4,49
2015-08-15 00:35:00,56.2,56.2,56.2,90,53.3047530507224,1,7,225,0,0,29.478,0,0,0,78.4,49
2015-08-15 00:40:00,56.1,56.1,56.1,90,53.206029721701,3,8,225,0,0,29.48,0,0,0,78.4,49
2015-08-15 00:45:00,56,56,56,90,53.1073061129462,4,8,225,0,0,29.481,0,0,0,78.4,49
2015-08-15 00:50:00,55.9,55.9,55.9,90,53.0085822244566,2,7,225,0,0,29.481,0,0,0,78.4,49
2015-08-15 00:55:00,55.8,55.8,55.8,90,52.9098580562312,3,9,225,0,0,29.482,0,0,0,78.4,49
2015-08-15 01:00:00,55.7,55.7,55.7,90,52.8111336082687,2,6,225,0,0,29.478,0,0,0,78.4,49
2015-08-15 01:05:00,55.7,55.7,55.7,90,52.8111336082687,2,5,225,0,0,29.479,0,0,0,78.4,49
2015-08-15 01:10:00,55.6,55.6,55.6,90,52.712408880568,2,6,225,0,0,29.48,0,0,0,78.4,49
2015-08-15 01:15:00,55.6,55.6,55.6,90,52.712408880568,1,6,225,0,0,29.48,0,0,0,78.4,49
2015-08-15 01:20:00,55.5,55.5,55.5,90,52.6136838731278,1,7,270,0,0,29.48,0,0,0,78.4,49
2015-08-15 01:25:00,55.5,55.5,55.5,90,52.6136838731278,1,4,270,0,0,29.481,0,0,0,78.4,49
2015-08-15 01:30:00,55.4,55.4,55.4,90,52.514958585947,1,6,270,0,0,29.483,0,0,0,78.4,49
2015-08-15 01:35:00,55.3,55.3,55.3,90,52.4162330190244,2,6,225,0,0,29.482,0,0,0,78.4,49
2015-08-15 01:40:00,55.2,55.2,55.2,90,52.3175071723588,2,7,225,0,0,29.48,0,0,0,78.4,49
2015-08-15 01:45:00,55,55,55,90,52.1200546397938,3,7,315,0,0,29.481,0,0,0,78.4,49
2015-08-15 01:50:00,54.9,54.9,54.9,90,52.021327953892,3,8,315,0,0,29.484,0,0,0,78.4,49
2015-08-15 01:55:00,54.8,54.8,54.8,89,51.6196112463024,1,5,247.5,0,0,29.487,0,0,0,78.4,49
2015-08-15 02:00:00,54.7,54.7,54.7,89,51.5210175475357,1,4,247.5,0,0,29.488,0,0,0,78.4,49
2015-08-15 02:05:00,54.6,54.6,54.6,89,51.4224235399793,2,6,225,0,0,29.491,0,0,0,78.4,49
2015-08-15 02:10:00,54.5,54.5,54.5,89,51.3238292236319,1,4,225,0,0,29.494,0,0,0,78.4,49
2015-08-15 02:15:00,54.5,54.5,54.5,89,51.3238292236319,1,4,225,0,0,29.494,0,0,0,78.4,49
2015-08-15 02:20:00,54.4,54.4,54.4,89,51.225234598492,1,5,225,0,0,29.495,0,0,0,78.4,49
2015-08-15 02:25:00,54.3,54.3,54.3,89,51.126639664558,2,7,292.5,0,0,29.493,0,0,0,78.4,49
2015-08-15 02:30:00,54.1,54.1,54.1,88,50.624395014439,2,7,270,0,0,29.496,0,0,0,78.4,49
2015-08-15 02:35:00,54,54,54,88,50.5259337296532,4,8,270,0,0,29.497,0,0,0,78.4,49
2015-08-15 02:40:00,54,54,54,88,50.5259337296532,3,7,247.5,0,0,29.498,0,0,0,78.4,49
2015-08-15 02:45:00,54,54,54,88,50.5259337296532,3,9,292.5,0,0,29.499,0,0,0,78.4,49
2015-08-15 02:50:00,53.9,53.9,53.9,88,50.4274721068186,2,8,225,0,0,29.499,0,0,0,78.4,48
2015-08-15 02:55:00,53.9,53.9,53.9,87,50.119626921725,4,10,225,0,0,29.501,0,0,0,78.2,48
2015-08-15 03:00:00,53.9,53.9,53.9,87,50.119626921725,3,8,225,0,0,29.5,0,0,0,78.2,48
2015-08-15 03:05:00,53.9,53.9,53.9,87,50.119626921725,2,7,247.5,0,0,29.498,0,0,0,78.2,48
2015-08-15 03:10:00,53.9,53.9,53.9,87,50.119626921725,4,9,225,0,0,29.502,0,0,0,78.2,48
2015-08-15 03:15:00,53.9,53.9,53.9,86,49.8086545437114,4,9,225,0,0,29.502,0,0,0,78.2,48
2015-08-15 03:20:00,53.8,53.8,53.8,86,49.7104654161424,4,7,270,0,0,29.502,0,0,0,78.2,48
2015-08-15 03:25:00,53.8,53.8,53.8,86,49.7104654161424,3,10,270,0,0,29.502,0,0,0,78.2,48
2015-08-15 03:30:00,53.8,53.8,53.8,86,49.7104654161424,4,11,247.5,0,0,29.503,0,0,0,78.2,48
2015-08-15 03:35:00,53.8,53.8,53.8,86,49.7104654161424,3,8,270,0,0,29.5,0,0,0,78.2,48
2015-08-15 03:40:00,53.7,53.7,53.7,86,49.6122758913823,3,8,225,0,0,29.505,0,0,0,78.2,48
2015-08-15 03:45:00,53.7,53.7,53.7,86,49.6122758913823,2,6,202.5,0,0,29.505,0,0,0,78.2,48
2015-08-15 03:50:00,53.7,53.7,53.7,86,49.6122758913823,2,10,270,0,0,29.508,0,0,0,78.2,48
2015-08-15 03:55:00,53.6,53.6,53.6,86,49.5140859694285,2,10,292.5,0,0,29.509,0,0,0,78.2,48
2015-08-15 04:00:00,53.6,53.6,53.6,85,49.2003324227907,3,9,270,0,0,29.511,0,0.001,0,78.2,48
2015-08-15 04:05:00,53.5,53.5,53.5,85,49.1022803843315,2,12,292.5,0,0,29.512,0,0,0,78.2,48
2015-08-15 04:10:00,53.5,53.5,53.5,85,49.1022803843315,3,9,270,0,0,29.514,0,0,0,78.2,48
2015-08-15 04:15:00,53.5,53.5,53.5,85,49.1022803843315,3,8,247.5,0,0,29.514,0,0,0,78.2,48
2015-08-15 04:20:00,53.4,53.4,53.4,85,49.0042279187756,3,8,247.5,0,0,29.518,0,0,0,78,48
2015-08-15 04:25:00,53.3,53.3,53.3,85,48.9061750261201,3,11,270,0,0,29.522,0,0,0,78,48
2015-08-15 04:30:00,53.3,53.3,53.3,85,48.9061750261201,3,7,247.5,0,0,29.519,0,0,0,78,48
2015-08-15 04:35:00,53.2,53.2,53.2,85,48.8081217063623,4,9,270,0,0,29.522,0,0,0,78,48
2015-08-15 04:40:00,53.1,53.1,53.1,84,48.3937486851865,3,8,315,0,0,29.524,0,0,0,78,48
2015-08-15 04:45:00,52.9,52.9,52.9,84,48.1979188189431,4,10,315,0,0,29.526,0,0,0,78,48
2015-08-15 04:50:00,52.9,52.9,52.9,84,48.1979188189431,4,10,315,0,0,29.527,0,0,0,78,48
2015-08-15 04:55:00,52.8,52.8,52.8,84,48.1000031999652,3,8,292.5,0,0,29.53,0,0,0,78,48
2015-08-15 05:00:00,52.7,52.7,52.7,83,47.6830005930688,3,7,292.5,0,0,29.531,4,0,0,78,48
2015-08-15 05:05:00,52.6,52.6,52.6,83,47.5852247752735,2,6,315,0,0,29.535,8,0,0,78,48
2015-08-15 05:10:00,52.6,52.6,52.6,83,47.5852247752735,1,6,270,0,0,29.535,10,0,0,78,47
2015-08-15 05:15:00,52.5,52.5,52.5,83,47.4874484698749,1,4,270,0,0,29.536,14,0,0,78,47
2015-08-15 05:20:00,52.4,52.4,52.4,83,47.3896716768694,2,9,270,0,0,29.539,18,0,0,78,46
2015-08-15 05:25:00,52.4,52.4,52.4,83,47.3896716768694,2,10,247.5,0,0,29.54,22,0,0,77.9,46
2015-08-15 05:30:00,52.3,52.3,52.3,83,47.2918943962534,2,6,270,0,0,29.538,27,0,0,77.9,45
2015-08-15 05:35:00,52.1,52.1,52.1,83,47.0963383721751,2,7,270,0,0,29.543,31,0,0,77.9,45
2015-08-15 05:40:00,52,52,52,83,46.9985596287056,2,6,292.5,0,0,29.544,35,0,0,77.7,45
2015-08-15 05:45:00,52,52,52,83,46.9985596287056,2,6,292.5,0,0,29.545,38,0,0,77.7,45
2015-08-15 05:50:00,51.9,51.9,51.9,83,46.900780397611,2,5,315,0,0,29.545,41,0,0,77.7,45
2015-08-15 05:55:00,51.9,51.9,51.9,83,46.900780397611,2,6,270,0,0,29.545,43,0,0.4,77.7,45
2015-08-15 06:00:00,51.8,51.8,51.8,83,46.8030006788876,3,7,292.5,0,0,29.545,32,0.001,0,77.7,45
2015-08-15 06:05:00,51.8,51.8,51.8,83,46.8030006788876,2,7,270,0,0,29.548,37,0,0,77.7,45
2015-08-15 06:10:00,51.8,51.8,51.8,83,46.8030006788876,2,7,292.5,0,0,29.549,74,0,0.9,77.7,45
2015-08-15 06:15:00,51.8,51.8,51.8,83,46.8030006788876,2,6,315,0,0,29.553,125,0,1.3,77.7,45
2015-08-15 06:20:00,51.9,51.9,51.9,83,46.900780397611,2,5,292.5,0,0,29.555,137,0,1.2,77.7,45
2015-08-15 06:25:00,52,52,52,83,46.9985596287056,2,6,315,0,0,29.556,148,0,1.1,77.5,45
2015-08-15 06:30:00,52.2,52.2,52.2,83,47.1941166280232,1,6,315,0,0,29.554,162,0,1.2,77.5,45
2015-08-15 06:35:00,52.4,52.4,52.4,83,47.3896716768694,1,6,292.5,0,0,29.555,177,0,1.2,77.5,45
2015-08-15 06:40:00,52.6,52.6,52.6,83,47.5852247752735,2,6,292.5,0,0,29.558,189,0,1.2,77.5,45
2015-08-15 06:45:00,52.8,52.8,52.8,83,47.7807759232646,2,7,247.5,0,0,29.558,200,0,1.3,77.5,45
2015-08-15 06:50:00,53,53,53,82,47.6534110685708,3,7,292.5,0,0,29.562,213,0,1.3,77.5,45
2015-08-15 06:55:00,53.2,53.2,53.2,82,47.8486738151195,4,9,315,0,0,29.563,225,0,1.3,77.5,45
2015-08-15 07:00:00,53.5,53.5,53.5,81,47.8144473364899,4,10,315,0,0,29.564,238,0.003,1.4,77.5,44
2015-08-15 07:05:00,53.7,53.7,53.7,81,48.0094172334901,5,10,315,0,0,29.566,252,0,1.4,77.5,44
2015-08-15 07:10:00,54,54,54,80,47.9704515222498,3,9,270,0,0,29.564,266,0,1.5,77.5,44
2015-08-15 07:15:00,54.2,54.2,54.2,80,48.1651250246039,4,11,337.5,0,0,29.565,277,0,1.6,77.5,44
2015-08-15 07:20:00,54.5,54.5,54.5,79,48.121314201717,3,7,270,0,0,29.568,290,0,1.7,77.5,44
2015-08-15 07:25:00,54.8,54.8,54.8,78,48.0728497518828,4,9,247.5,0,0,29.568,304,0,1.7,77.5,44
2015-08-15 07:30:00,55.1,55.1,55.1,78,48.3639573090874,3,8,315,0,0,29.566,315,0,1.8,77.5,44
2015-08-15 07:35:00,55.3,55.3,55.3,76,47.8647994980955,6,11,270,0,0,29.568,327,0,2,77.7,44
2015-08-15 07:40:00,55.7,55.7,55.7,76,48.2517183348591,4,10,292.5,0,0,29.571,340,0,2,77.7,44
2015-08-15 07:45:00,56.1,56.1,56.1,75,48.2847423590802,3,7,270,0,0,29.571,354,0,2.1,77.7,44
2015-08-15 07:50:00,56.6,56.6,56.6,74,48.4087527262034,4,10,247.5,0,0,29.574,367,0,2.2,77.7,43
2015-08-15 07:55:00,56.8,56.8,56.8,72,47.8702785939598,5,10,292.5,0,0,29.576,379,0,2.3,77.7,43
2015-08-15 08:00:00,57.1,57.1,57.1,71,47.7856964375441,4,8,337.5,0,0,29.575,391,0.007,2.4,77.7,43
2015-08-15 08:05:00,57.6,57.6,57.6,71,48.2653337805932,3,9,315,0,0,29.575,401,0,2.5,77.7,43
2015-08-15 08:10:00,58,58,58,69,47.8862769776951,3,13,0,0,0,29.577,414,0,2.6,77.7,43
2015-08-15 08:15:00,58,58,58,68,47.4975792723378,4,12,0,0,0,29.579,431,0,2.7,77.7,43
2015-08-15 08:20:00,57.7,57.7,57.7,69,47.5994940600375,5,11,315,0,0,29.579,437,0,2.7,77.7,43
2015-08-15 08:25:00,57.8,57.8,57.8,69,47.6950893046379,5,10,292.5,0,0,29.578,384,0,2.6,77.7,43
2015-08-15 08:30:00,57.9,57.9,57.9,69,47.7906836105191,6,14,315,0,0,29.581,469,0,3,77.7,42
2015-08-15 08:35:00,58.3,58.3,58.3,68,47.7838514019471,6,15,337.5,0,0,29.581,488,0,3.1,77.7,42
2015-08-15 08:40:00,59.1,59.1,59.1,67,48.1515742985292,4,9,292.5,0,0,29.581,505,0,3.2,77.7,42
2015-08-15 08:45:00,59,59,59,66,47.6556442695263,6,16,292.5,0,0,29.579,518,0,3.3,77.7,42
2015-08-15 08:50:00,59,59,59,66,47.6556442695263,4,9,315,0,0,29.581,522,0,3.1,77.7,42
2015-08-15 08:55:00,59.6,59.6,59.6,66,48.2260703265568,5,12,292.5,0,0,29.581,525,0,3.6,77.7,42
2015-08-15 09:00:00,59.6,59.6,59.6,64,47.4063064935354,6,12,270,0,0,29.587,551,0.01,3.7,77.9,42
2015-08-15 09:05:00,59,59,59,64,46.8379831092376,7,14,315,0,0,29.588,373,0,2.8,77.9,42
2015-08-15 09:10:00,59.2,59.2,59.2,64,47.0274286916348,5,12,315,0,0,29.588,539,0,3.8,77.9,42
2015-08-15 09:15:00,59.6,59.6,59.6,63,46.9879364576494,6,12,337.5,0,0,29.591,196,0,3.5,77.9,41
2015-08-15 09:20:00,60.5,60.5,60.5,63,47.8387365209101,4,12,247.5,0,0,29.591,705,0,4.4,77.9,41
2015-08-15 09:25:00,61.1,61.1,61.1,62,47.978908747112,5,13,270,0,0,29.592,670,0,4.6,77.9,41
2015-08-15 09:30:00,61,61,61,61,47.4516734036639,6,10,337.5,0,0,29.588,607,0,4.6,77.9,41
2015-08-15 09:35:00,60.6,60.6,60.6,60,46.6365958095714,7,14,270,0,0,29.588,615,0,4.4,77.9,40
2015-08-15 09:40:00,60.5,60.5,60.5,61,46.9808737184273,6,12,292.5,0,0,29.592,337,0,3.8,77.9,40
2015-08-15 09:45:00,61.4,61.4,61.4,61,47.828291149113,3,9,247.5,0,0,29.593,638,0,4.9,77.9,40
2015-08-15 09:50:00,61.5,61.5,61.5,60,47.4823238531502,7,14,270,0,0,29.591,636,0,5,77.9,40
2015-08-15 09:55:00,61.6,61.6,61.6,59,47.1294763229263,5,12,247.5,0,0,29.588,649,0,5.2,77.9,40
2015-08-15 10:00:00,61.6,61.6,61.6,58,46.6759498409296,6,12,270,0,0,29.589,648,0.013,5.2,77.9,39
2015-08-15 10:05:00,62.4,62.4,62.4,58,47.4245606140624,5,11,225,0,0,29.591,663,0,5.4,77.9,39
2015-08-15 10:10:00,62.4,62.4,62.4,58,47.4245606140624,6,13,315,0,0,29.591,671,0,5.5,77.9,39
2015-08-15 10:15:00,62.5,62.5,62.5,58,47.5181309550381,7,15,315,0,0,29.587,681,0,5.5,77.9,39
2015-08-15 10:20:00,62.8,62.8,62.8,59,48.2546661010749,6,15,202.5,0,0,29.589,722,0,5.7,77.9,39
2015-08-15 10:25:00,63.2,63.2,63.2,58,48.1730859775433,5,14,270,0,0,29.591,706,0,5.8,77.9,39
2015-08-15 10:30:00,62.9,62.9,62.9,59,48.3484234878756,7,16,270,0,0,29.593,712,0,5.9,77.9,39
2015-08-15 10:35:00,63,63,63,59,48.4421795781796,6,12,225,0,0,29.594,742,0,6.1,77.9,39
2015-08-15 10:40:00,63.9,63.9,63.9,58,48.827975619474,5,10,292.5,0,0,29.595,766,0,5.8,77.9,39
2015-08-15 10:45:00,62.9,62.9,62.9,59,48.3484234878756,6,13,247.5,0,0,29.594,135,0,4.1,77.9,39
2015-08-15 10:50:00,62.6,62.6,62.6,61,48.958027053507,5,11,292.5,0,0,29.595,804,0,6.4,77.9,39
2015-08-15 10:55:00,62.4,62.4,62.4,58,47.4245606140624,5,11,225,0,0,29.597,207,0,4,77.9,39
2015-08-15 11:00:00,62.4,62.4,62.4,57,46.9625399483897,6,11,270,0,0,29.596,690,0.016,5.4,77.9,39
2015-08-15 11:05:00,62.1,62.1,62.1,57,46.6824055964493,6,19,247.5,0,0,29.6,257,0,3.7,77.9,38
2015-08-15 11:10:00,62.1,62.1,62.1,59,47.5983280893003,7,15,270,0,0,29.601,678,0,6,78,38
2015-08-15 11:15:00,62.7,62.7,62.7,58,47.7052676335263,7,15,337.5,0,0,29.604,708,0,5.6,78,38
2015-08-15 11:20:00,62,62,62,58,47.0502659046162,7,13,270,0,0,29.606,323,0,4.5,78,38
2015-08-15 11:25:00,61.1,61.1,61.1,60,47.10645731742,6,13,292.5,0,0,29.607,373,0,4.3,78,38
2015-08-15 11:30:00,60.5,60.5,60.5,59,46.0978883096799,7,16,270,0,0,29.608,305,0,3.6,78.2,38
2015-08-15 11:35:00,60.1,60.1,60.1,60,46.1667028118957,6,14,315,0.00393700787,0,29.609,326,0,3.7,78.2,38
2015-08-15 11:40:00,60.2,60.2,60.2,61,46.6983792376493,5,12,292.5,0,0,29.611,347,0,3.8,78.4,37
2015-08-15 11:45:00,61.1,61.1,61.1,61,47.5458296735165,3,13,270,0,0,29.613,375,0,4,78.4,37
2015-08-15 11:50:00,61.2,61.2,61.2,60,47.2004258404889,5,9,270,0,0,29.615,432,0,4.4,78.6,37
2015-08-15 11:55:00,61.3,61.3,61.3,59,46.8481497011596,5,15,292.5,0,0,29.62,396,0,4.3,78.6,37
2015-08-15 12:00:00,61,61,61,60,47.0124875348845,5,11,292.5,0,0,29.62,395,0.011,4.4,78.8,37
2015-08-15 12:05:00,61.3,61.3,61.3,61,47.7341385462172,5,10,292.5,0,0,29.623,345,0,5.3,78.8,37
2015-08-15 12:10:00,61,61,61,61,47.4516734036639,5,15,292.5,0,0,29.624,305,0,3.4,78.8,37
2015-08-15 12:15:00,60.9,60.9,60.9,62,47.7902270276527,5,12,225,0,0,29.627,251,0,2.8,78.8,37
2015-08-15 12:20:00,60.8,60.8,60.8,62,47.6958843894682,3,11,292.5,0,0,29.628,249,0,2.8,78.8,37
2015-08-15 12:25:00,60.4,60.4,60.4,63,47.7442077782362,4,12,225,0,0,29.631,263,0,2.9,79,37
2015-08-15 12:30:00,60.2,60.2,60.2,63,47.5551468447479,3,10,225,0,0,29.631,302,0,3.2,79,37
2015-08-15 12:35:00,60.3,60.3,60.3,62,47.2241534131025,5,13,270,0,0,29.634,353,0,3.7,79,37
2015-08-15 12:40:00,60.9,60.9,60.9,62,47.7902270276527,4,10,270,0,0,29.636,400,0,4.2,79.2,36
2015-08-15 12:45:00,61.4,61.4,61.4,62,48.2619224343617,5,10,270,0,0,29.635,605,0,6.3,79.2,36
2015-08-15 12:50:00,63.6,63.6,63.6,60,49.4552926200249,3,11,225,0,0,29.637,1015,0,6.6,79.3,36
2015-08-15 12:55:00,62.8,62.8,62.8,60,48.7037509428114,5,11,337.5,0,0,29.639,241,0,3,79.3,36
2015-08-15 13:00:00,61.9,61.9,61.9,60,47.8581702390373,6,13,225,0,0,29.64,156,0.01,1.9,79.3,36
2015-08-15 13:05:00,61.1,61.1,61.1,61,47.5458296735165,4,9,225,0,0,29.639,140,0,1.6,79.3,36
2015-08-15 13:10:00,60.8,60.8,60.8,62,47.6958843894682,3,8,270,0,0,29.644,180,0,2,79.2,36
2015-08-15 13:15:00,60.5,60.5,60.5,62,47.4128493608268,6,11,270,0,0,29.645,268,0,2.9,79.2,36
2015-08-15 13:20:00,61.2,61.2,61.2,60,47.2004258404889,4,8,247.5,0,0,29.644,430,0,4.7,79.3,36
2015-08-15 13:25:00,63.2,63.2,63.2,58,48.1730859775433,3,10,315,0,0,29.643,875,0,6.3,79.3,36
2015-08-15 13:30:00,63.6,63.6,63.6,58,48.5473166352318,4,13,202.5,0,0,29.642,196,0,3,79.3,36
2015-08-15 13:35:00,63,63,63,57,47.5227715866167,6,14,270,0,0,29.649,627,0,4.6,79.3,36
2015-08-15 13:40:00,62.3,62.3,62.3,56,46.4001502854879,7,16,292.5,0,0,29.654,258,0,3,79.3,36
2015-08-15 13:45:00,61.8,61.8,61.8,58,46.8631105421671,4,11,270,0,0,29.655,285,0,3,79.3,36
2015-08-15 13:50:00,62.8,62.8,62.8,58,47.7988339710958,5,10,315,0,0,29.655,1020,0,5.3,79.3,36
2015-08-15 13:55:00,62.7,62.7,62.7,57,47.2426619448397,6,15,225,0,0,29.654,275,0,3.3,79.3,35
2015-08-15 14:00:00,62.2,62.2,62.2,57,46.7757850866455,4,13,270,0,0,29.655,302,0.01,3.3,79.3,35
2015-08-15 14:05:00,62.1,62.1,62.1,57,46.6824055964493,4,9,202.5,0,0,29.654,338,0,3.7,79.2,35
2015-08-15 14:10:00,62.3,62.3,62.3,54,45.4395726725318,4,12,270,0,0,29.657,221,0,3.1,79.2,35
2015-08-15 14:15:00,61.6,61.6,61.6,55,45.272817054653,6,12,315,0,0,29.657,223,0,3,79,35
2015-08-15 14:20:00,61.9,61.9,61.9,55,45.5517781072661,5,10,270,0,0,29.656,414,0,4,79,35
2015-08-15 14:25:00,63.7,63.7,63.7,51,45.2281277513837,5,13,270,0,0,29.657,758,0,5.1,79,35
2015-08-15 14:30:00,63.4,63.4,63.4,51,44.95175263028,7,12,0,0,0,29.657,308,0,3.9,78.8,35
2015-08-15 14:35:00,63.3,63.3,63.3,52,45.3706473726701,6,11,315,0,0,29.656,755,0,4.9,78.8,35
2015-08-15 14:40:00,63.9,63.9,63.9,53,46.4283808423678,5,12,225,0,0,29.658,722,0,4.6,78.8,35
2015-08-15 14:45:00,63.6,63.6,63.6,52,45.6476688373733,7,13,337.5,0,0,29.657,583,0,4,78.8,35
2015-08-15 14:50:00,62.5,62.5,62.5,53,45.1326136300073,7,16,270,0,0,29.661,279,0,3.3,78.8,35
2015-08-15 14:55:00,62.9,62.9,62.9,54,45.9961980394978,7,14,270,0,0,29.663,789,0,4.5,78.8,35
2015-08-15 15:00:00,64,64,64,52,46.0170088035699,4,12,315,0,0,29.664,644,0.013,3.7,78.6,34
2015-08-15 15:05:00,63.2,63.2,63.2,54,46.2744906052797,3,11,202.5,0,0,29.663,146,0,2.3,78.6,35
2015-08-15 15:10:00,62.3,62.3,62.3,55,45.9237058649984,5,12,202.5,0,0,29.663,336,0,3.3,78.6,35
2015-08-15 15:15:00,62.9,62.9,62.9,53,45.5028634366533,6,13,292.5,0,0,29.664,241,0,3,78.6,35
2015-08-15 15:20:00,62.3,62.3,62.3,54,45.4395726725318,5,12,270,0,0,29.662,173,0,2.3,78.6,35
2015-08-15 15:25:00,62.4,62.4,62.4,54,45.5323472927657,4,14,247.5,0,0,29.665,254,0,2.8,78.6,34
2015-08-15 15:30:00,62.6,62.6,62.6,52,44.7242089816323,5,13,292.5,0,0,29.667,255,0,2.9,78.6,34
2015-08-15 15:35:00,62.7,62.7,62.7,54,45.8106622115489,5,10,247.5,0,0,29.664,176,0,2.2,78.6,34
2015-08-15 15:40:00,62.3,62.3,62.3,53,44.9474795445356,5,12,270,0,0,29.665,207,0,1.8,78.6,34
2015-08-15 15:45:00,62,62,62,51,43.6618102664104,3,9,225,0,0,29.667,278,0,2.3,78.6,34
2015-08-15 15:50:00,61.8,61.8,61.8,54,44.9756772149494,3,11,247.5,0,0,29.668,235,0,2.1,78.6,34
2015-08-15 15:55:00,61.6,61.6,61.6,56,45.7478578442742,4,9,180,0,0,29.666,262,0,2.2,78.4,34
2015-08-15 16:00:00,61.7,61.7,61.7,57,46.3088739061308,4,9,337.5,0,0,29.667,146,0.008,1.9,78.4,34
2015-08-15 16:05:00,61.7,61.7,61.7,57,46.3088739061308,2,6,270,0,0,29.666,147,0,1.4,78.4,34
2015-08-15 16:10:00,61.9,61.9,61.9,53,44.5771930077768,5,14,315,0,0,29.668,334,0,1.7,78.4,34
2015-08-15 16:15:00,61.7,61.7,61.7,54,44.8828936518989,6,12,270,0,0,29.67,408,0,2.1,78.4,34
2015-08-15 16:20:00,63.2,63.2,63.2,54,46.2744906052797,4,11,270,0,0,29.67,562,0,2.4,78.4,34
2015-08-15 16:25:00,63.1,63.1,63.1,51,44.6753630047865,6,16,270,0,0,29.672,508,0,2.2,78.6,34
2015-08-15 16:30:00,63.3,63.3,63.3,52,45.3706473726701,5,15,247.5,0,0,29.673,455,0,2.1,78.6,34
2015-08-15 16:35:00,63.6,63.6,63.6,52,45.6476688373733,4,14,180,0,0,29.676,421,0,2,78.6,34
2015-08-15 16:40:00,62.5,62.5,62.5,52,44.6318543567938,7,12,292.5,0,0,29.675,193,0,1.6,78.6,34
2015-08-15 16:45:00,61.3,61.3,61.3,56,45.4682827642528,6,13,315,0,0,29.676,94,0,1.4,78.6,34
2015-08-15 16:50:00,60.6,60.6,60.6,57,45.2815484757778,4,9,0,0,0,29.676,100,0,1.3,78.6,34
2015-08-15 16:55:00,60.6,60.6,60.6,57,45.2815484757778,5,13,292.5,0,0,29.675,128,0,1.3,78.4,34
2015-08-15 17:00:00,61.3,61.3,61.3,55,44.9938429430375,6,11,270,0,0,29.682,369,0.009,1.4,78.4,34
2015-08-15 17:05:00,61.6,61.6,61.6,52,43.8005920363317,5,12,270,0,0,29.681,349,0,1.5,78.4,34
2015-08-15 17:10:00,61.5,61.5,61.5,51,43.2010399919821,6,14,292.5,0,0,29.685,314,0,1.4,78.4,34
2015-08-15 17:15:00,61.5,61.5,61.5,53,44.2068819812395,5,11,292.5,0,0,29.687,296,0,1.3,78.4,34
2015-08-15 17:20:00,61.3,61.3,61.3,54,44.5117444933866,5,12,270,0,0,29.684,285,0,1.3,78.4,34
2015-08-15 17:25:00,61.4,61.4,61.4,53,44.1143003977926,5,13,270,0,0,29.685,261,0,1.2,78.4,34
2015-08-15 17:30:00,61.5,61.5,61.5,52,43.7082217003326,4,11,337.5,0,0,29.689,263,0,1.1,78.4,34
2015-08-15 17:35:00,61.6,61.6,61.6,51,43.2931972715037,6,12,292.5,0,0,29.688,249,0,1.1,78.4,34
2015-08-15 17:40:00,61.3,61.3,61.3,52,43.5234763142847,6,14,292.5,0,0,29.689,234,0,1,78.4,34
2015-08-15 17:45:00,61,61,61,52,43.246346449487,5,13,270,0,0,29.691,218,0,1,78.4,34
2015-08-15 17:50:00,60.9,60.9,60.9,52,43.1539666848671,5,15,225,0,0,29.693,201,0,0.9,78.4,34
2015-08-15 17:55:00,60.6,60.6,60.6,53,43.3735926181931,5,12,247.5,0,0,29.689,185,0,0.8,78.4,34
2015-08-15 18:00:00,60.6,60.6,60.6,52,42.8768179613842,5,12,315,0,0,29.694,168,0.007,0.8,78.4,34
2015-08-15 18:05:00,60.4,60.4,60.4,52,42.6920442873085,5,11,315,0,0,29.695,153,0,0.8,78.4,34
2015-08-15 18:10:00,60.1,60.1,60.1,52,42.414871987762,6,12,247.5,0,0,29.698,134,0,0.7,78.4,34
2015-08-15 18:15:00,59.9,59.9,59.9,52,42.2300825953078,5,12,247.5,0,0,29.698,123,0,0.6,78.4,34
2015-08-15 18:20:00,59.8,59.8,59.8,52,42.1376855411333,4,8,225,0,0,29.699,111,0,0.6,78.4,34
2015-08-15 18:25:00,59.8,59.8,59.8,53,42.63278684789,3,7,225,0,0,29.702,98,0,0.6,78.4,34
2015-08-15 18:30:00,59.6,59.6,59.6,53,42.4475700919879,4,10,270,0,0,29.7,86,0,0.5,78.4,34
2015-08-15 18:35:00,59.4,59.4,59.4,54,42.748460224767,3,9,247.5,0,0,29.701,73,0,0.5,78.4,34
2015-08-15 18:40:00,59,59,59,54,42.3771738868779,4,8,292.5,0,0,29.703,63,0,0.3,78.4,35
2015-08-15 18:45:00,59,59,59,54,42.3771738868779,5,10,292.5,0,0,29.702,52,0,0,78.4,34
2015-08-15 18:50:00,58.9,58.9,58.9,55,42.7615798159732,3,8,247.5,0,0,29.702,41,0,0,78.4,35
2015-08-15 18:55:00,58.5,58.5,58.5,55,42.3894546667638,4,9,315,0,0,29.703,24,0,0,78.4,35
2015-08-15 19:00:00,58.2,58.2,58.2,56,42.5785960334751,2,8,292.5,0,0,29.704,20,0.003,0,78.4,35
2015-08-15 19:05:00,58,58,58,57,42.8526640639257,4,9,292.5,0,0,29.704,18,0,0,78.4,35
2015-08-15 19:10:00,57.7,57.7,57.7,57,42.5723484041703,3,10,337.5,0,0,29.706,16,0,0,78.4,35
2015-08-15 19:15:00,57.5,57.5,57.5,58,42.837978552367,4,10,337.5,0,0,29.707,13,0,0,78.4,35
2015-08-15 19:20:00,57.3,57.3,57.3,59,43.0960124347947,2,8,270,0,0,29.708,11,0,0,78.4,35
2015-08-15 19:25:00,57,57,57,60,43.2526631801913,2,6,270,0,0,29.709,9,0,0,78.4,35
2015-08-15 19:30:00,56.9,56.9,56.9,61,43.5902136087989,3,7,292.5,0,0,29.708,7,0,0,78.4,35
2015-08-15 19:35:00,56.7,56.7,56.7,61,43.4017971259349,3,7,292.5,0,0,29.712,5,0,0,78.4,35
2015-08-15 19:40:00,56.5,56.5,56.5,62,43.6380290110167,2,7,270,0,0,29.715,0,0,0,78.4,35
2015-08-15 19:45:00,56.3,56.3,56.3,63,43.8675394775821,3,7,315,0,0,29.716,0,0,0,78.4,35
2015-08-15 19:50:00,56,56,56,64,43.9957647443906,1,4,292.5,0,0,29.722,0,0,0,78.4,35
2015-08-15 19:55:00,55.8,55.8,55.8,64,43.8062478710168,3,8,292.5,0,0,29.721,0,0,0,78.2,35
2015-08-15 20:00:00,55.7,55.7,55.7,65,44.117290279425,3,8,292.5,0,0,29.721,0,0.001,0,78.2,36
2015-08-15 20:05:00,55.7,55.7,55.7,66,44.517629944945,2,7,315,0,0,29.723,0,0,0,78.2,36
2015-08-15 20:10:00,55.5,55.5,55.5,66,44.3274107540805,3,8,225,0,0,29.722,0,0,0,78.2,36
2015-08-15 20:15:00,55.3,55.3,55.3,66,44.1371873904236,2,7,225,0,0,29.725,0,0,0,78.2,36
2015-08-15 20:20:00,55,55,55,67,44.24568255471,1,6,270,0,0,29.726,0,0,0,78.2,36
2015-08-15 20:25:00,54.8,54.8,54.8,68,44.4434648951203,1,6,292.5,0,0,29.723,0,0,0,78.2,36
2015-08-15 20:30:00,54.6,54.6,54.6,69,44.6355757973002,0,4,0,0,0,29.724,0,0,0,78.2,36
2015-08-15 20:35:00,54.5,54.5,54.5,69,44.5399505063864,1,7,247.5,0,0,29.726,0,0,0,78.2,36
2015-08-15 20:40:00,54.3,54.3,54.3,70,44.7263721977303,1,5,247.5,0,0,29.727,0,0,0,78,36
2015-08-15 20:45:00,54.2,54.2,54.2,70,44.6305799492932,1,5,247.5,0,0,29.725,0,0,0,78,36
2015-08-15 20:50:00,54.1,54.1,54.1,70,44.5347867957339,2,6,270,0,0,29.726,0,0,0,78,36
2015-08-15 20:55:00,54.1,54.1,54.1,70,44.5347867957339,1,7,225,0,0,29.727,0,0,0,78,36
2015-08-15 21:00:00,54,54,54,71,44.811458840451,1,7,225,0,0,29.728,0,0.001,0,78,36
2015-08-15 21:05:00,53.9,53.9,53.9,71,44.7155017523198,1,5,247.5,0,0,29.726,0,0,0,78,36
2015-08-15 21:10:00,53.8,53.8,53.8,71,44.6195437928182,1,5,247.5,0,0,29.726,0,0,0,78,36
2015-08-15 21:15:00,53.7,53.7,53.7,72,44.8909784217017,0,3,0,0,0,29.73,0,0,0,78,37
2015-08-15 21:20:00,53.5,53.5,53.5,72,44.6987378600681,0,3,0,0,0,29.728,0,0,0,78,37
2015-08-15 21:25:00,53.3,53.3,53.3,72,44.5064939467359,0,5,0,0,0,29.73,0,0,0,78,37
2015-08-15 21:30:00,53.2,53.2,53.2,73,44.7725060211184,1,6,247.5,0,0,29.73,0,0,0,78,37
2015-08-15 21:35:00,53,53,53,73,44.5799407583894,2,5,247.5,0,0,29.73,0,0,0,78,37
2015-08-15 21:40:00,52.9,52.9,52.9,74,44.8409800230722,2,6,315,0,0,29.734,0,0,0,78,37
2015-08-15 21:45:00,52.9,52.9,52.9,74,44.8409800230722,3,8,315,0,0,29.737,0,0,0,78,37
2015-08-15 21:50:00,52.6,52.6,52.6,74,44.5516548493999,2,6,337.5,0,0,29.739,0,0,0,77.9,37